Weather History for Garden City, KS

Change the Weather History Date:

Monday, June 10, 2013

  Actual Average Record
Temperature  
Mean Temperature 87 °F 71 °F  
Max Temperature 108 °F 84 °F 108 °F (2013)
Min Temperature 65 °F 58 °F 45 °F (1979)
Degree Days  
Heating Degree Days 0 1  
Month to date heating degree days 12 11  
Since 1 June heating degree days 12 11  
Since 1 July heating degree days 5211 5202  
Cooling Degree Days 22 7  
Month to date cooling degree days 61 59  
Year to date cooling degree days 208 148  
Since 1 June cooling degree days 61 59  
Growing Degree Days 36 (Base 50)    
Moisture  
Dew Point 50 °F    
Average Humidity 42    
Maximum Humidity 73    
Minimum Humidity 11    
Precipitation  
Precipitation 0.00 in 0.12 in 1.46 in (1985)
Month to date precipitation 0.34 1.12  
Year to date precipitation 1.91 8.06  
Sea Level Pressure  
Sea Level Pressure 29.71 in    
Wind  
Wind Speed 16 mph (SSW)    
Max Wind Speed 31 mph    
Max Gust Speed 40 mph    
Visibility 10 miles    
Events      
T = Trace of Precipitation, MM = Missing Value Source: NWS Daily Summary

Daily Weather History Graph

Daily Weather History Graph

Search for Another Location

Airport:

Trip Planner

Search our weather history database for the weather conditions in past years. The results will help you decide how hot, cold, wet, or windy it might be!

Date:

Astronomy

Jun. 10, 2013 Rise Set
Actual Time 6:20 AM CDT 9:04 PM CDT
Civil Twilight 5:48 AM CDT 9:36 PM CDT
Nautical Twilight 5:09 AM CDT 10:15 PM CDT
Astronomical Twilight 4:25 AM CDT 10:59 PM CDT
Moon 8:08 AM CDT (6/10) 10:34 PM CDT (6/10)
Length of Visible Light 15h 47m
Length of Day
14h 44m
Waxing Crescent, 4% of the Moon is Illuminated
Jun 10
Waxing Crescent
Jun 16
First Quarter
Jun 23
Full
Jun 29
Last Quarter
Jul 8
New

Hourly Weather History & Observations

Time (CDT) Temp. Heat Index Dew Point Humidity Pressure Visibility Wind Dir Wind Speed Gust Speed Precip Events Conditions
12:54 AM 72.0 °F - 54.0 °F 53% 29.80 in 10.0 mi East 8.1 mph - N/A   Clear
1:54 AM 66.9 °F - 53.1 °F 61% 29.80 in 10.0 mi East 8.1 mph - N/A   Clear
2:54 AM 69.1 °F - 55.9 °F 63% 29.77 in 10.0 mi SSE 4.6 mph - N/A   Clear
3:54 AM 69.1 °F - 57.9 °F 68% 29.75 in 10.0 mi South 9.2 mph - N/A   Clear
4:54 AM 66.9 °F - 57.0 °F 70% 29.75 in 10.0 mi South 6.9 mph - N/A   Clear
5:54 AM 66.9 °F - 55.9 °F 68% 29.75 in 10.0 mi SSW 8.1 mph - N/A   Clear
6:54 AM 66.9 °F - 55.9 °F 68% 29.76 in 10.0 mi SW 9.2 mph - N/A   Clear
7:54 AM 71.1 °F - 57.0 °F 61% 29.76 in 10.0 mi SW 10.4 mph - N/A   Clear
8:54 AM 77.0 °F - 57.9 °F 52% 29.77 in 10.0 mi SW 11.5 mph - N/A   Clear
9:54 AM 82.9 °F 82.4 °F 57.0 °F 41% 29.76 in 10.0 mi SW 13.8 mph - N/A   Clear
10:54 AM 91.0 °F 88.9 °F 55.0 °F 29% 29.75 in 10.0 mi SW 13.8 mph - N/A   Clear
11:54 AM 96.1 °F 93.8 °F 54.0 °F 24% 29.74 in 10.0 mi SW 13.8 mph 18.4 mph N/A   Clear
12:54 PM 102.0 °F - 48.0 °F 16% 29.71 in 10.0 mi SW 19.6 mph 26.5 mph N/A   Clear
1:54 PM 106.0 °F - 42.1 °F 11% 29.70 in 10.0 mi SSW 24.2 mph 31.1 mph N/A   Clear
2:54 PM 106.0 °F - 41.0 °F 11% 29.68 in 10.0 mi SSW 23.0 mph 34.5 mph N/A   Clear
3:54 PM 107.1 °F - 42.1 °F 11% 29.66 in 10.0 mi SSW 25.3 mph 38.0 mph N/A   Clear
4:54 PM 106.0 °F - 39.0 °F 10% 29.64 in 10.0 mi South 26.5 mph 35.7 mph N/A   Clear
5:54 PM 106.0 °F - 41.0 °F 11% 29.62 in 10.0 mi South 23.0 mph 31.1 mph N/A   Clear
6:54 PM 100.9 °F - 42.1 °F 13% 29.63 in 10.0 mi South 21.9 mph 34.5 mph N/A   Clear
7:54 PM 97.0 °F - 44.1 °F 16% 29.64 in 10.0 mi South 23.0 mph 33.4 mph N/A   Clear
8:54 PM 91.9 °F - 48.0 °F 22% 29.64 in 10.0 mi South 21.9 mph - N/A   Clear
9:54 PM 88.0 °F - 50.0 °F 27% 29.65 in 10.0 mi South 15.0 mph 24.2 mph N/A   Clear
10:54 PM 84.9 °F - 52.0 °F 32% 29.67 in 10.0 mi South 17.3 mph 25.3 mph N/A   Clear
11:54 PM 84.0 °F - 51.1 °F 32% 29.67 in 10.0 mi South 21.9 mph 26.5 mph N/A   Clear